TimeCST,TemperatureF,Dew PointF,Humidity,Sea Level PressureIn,VisibilityMPH,Wind Direction,Wind SpeedMPH,Gust SpeedMPH,PrecipitationIn,Events,Conditions,WindDirDegrees,DateUTC
12:53 AM,46.0,39.0,76,30.25,10.0,ENE,6.9,-,N/A,,Clear,60,2011-11-18 06:53:00
1:53 AM,46.0,39.0,76,30.24,10.0,ENE,8.1,-,N/A,,Clear,60,2011-11-18 07:53:00
2:53 AM,46.9,41.0,80,30.22,10.0,NE,8.1,-,N/A,,Clear,50,2011-11-18 08:53:00
3:53 AM,48.9,41.0,74,30.21,10.0,NE,9.2,-,N/A,,Clear,50,2011-11-18 09:53:00
4:53 AM,48.0,42.1,80,30.20,10.0,NE,8.1,-,N/A,,Clear,50,2011-11-18 10:53:00
5:53 AM,48.9,43.0,80,30.19,10.0,NE,9.2,-,N/A,,Clear,50,2011-11-18 11:53:00
6:53 AM,48.9,45.0,86,30.20,10.0,NE,8.1,-,N/A,,Clear,50,2011-11-18 12:53:00
7:53 AM,54.0,48.0,80,30.20,10.0,ENE,9.2,-,N/A,,Clear,60,2011-11-18 13:53:00
8:53 AM,62.1,52.0,70,30.20,10.0,ENE,11.5,-,N/A,,Clear,70,2011-11-18 14:53:00
9:53 AM,70.0,57.0,63,30.19,10.0,East,15.0,-,N/A,,Clear,90,2011-11-18 15:53:00
10:53 AM,73.0,57.9,59,30.17,10.0,SE,17.3,-,N/A,,Clear,130,2011-11-18 16:53:00
11:53 AM,75.0,57.9,55,30.14,10.0,ESE,15.0,-,N/A,,Clear,120,2011-11-18 17:53:00
12:53 PM,75.0,57.9,55,30.11,10.0,SE,19.6,25.3,N/A,,Clear,140,2011-11-18 18:53:00
1:53 PM,75.0,60.1,60,30.08,10.0,ESE,17.3,26.5,N/A,,Clear,120,2011-11-18 19:53:00
2:53 PM,73.9,60.1,62,30.06,10.0,SE,18.4,23.0,N/A,,Clear,130,2011-11-18 20:53:00
3:53 PM,72.0,60.1,66,30.05,10.0,ESE,19.6,25.3,N/A,,Mostly Cloudy,120,2011-11-18 21:53:00
4:53 PM,70.0,60.1,71,30.04,10.0,ESE,17.3,25.3,N/A,,Clear,120,2011-11-18 22:53:00
5:53 PM,69.1,61.0,75,30.04,10.0,ESE,12.7,-,N/A,,Overcast,120,2011-11-18 23:53:00
6:53 PM,70.0,62.1,76,30.03,10.0,SE,18.4,-,N/A,,Overcast,130,2011-11-19 00:53:00
7:53 PM,70.0,63.0,78,30.03,10.0,SE,15.0,23.0,N/A,,Overcast,130,2011-11-19 01:53:00
8:53 PM,70.0,64.0,81,30.02,10.0,SE,18.4,25.3,N/A,,Mostly Cloudy,130,2011-11-19 02:53:00
9:53 PM,70.0,64.9,84,30.02,10.0,SE,16.1,-,N/A,,Mostly Cloudy,140,2011-11-19 03:53:00
10:53 PM,69.8,66.2,88,30.02,10.0,SSE,10.4,-,N/A,,Partly Cloudy,150,2011-11-19 04:53:00
11:53 PM,69.1,66.0,90,30.01,10.0,SSE,11.5,-,N/A,,Mostly Cloudy,150,2011-11-19 05:53:00